[[{"header":{"parameterUnit":"m.s-1","parameterCategory":1,"la1":30.2991,"la2":30.254,"lo1":-89.0895,"lo2":-89.0444,"dy":0.0017,"dx":0.0017,"nx":28,"ny":28,"refTime":"2023-07-22T09:00:00:Z","depth":0,"parameterNumber":2,"parameterNumberName":"U-component_of_WINDS"},"data":[0,0,0,0,0,0,0,0,0,0,0,0,0,0,0,0,0,0,0,0,0,0,0,0,0,0,0,0,0,0,0,0,0,0,0,0,0,0,0,0,0,0,0,0,0,0,0,0,0,0,0,0,0,0,0,0,0,0,2.8351,2.8351,0,2.8371,2.8371,2.8371,2.8271,2.8268,2.8265,2.8262,2.8278,2.8281,2.8284,0,0,0,0,0,0,0,0,0,0,0,0,0,2.8222,2.8225,2.8351,2.8351,2.8351,2.8371,2.8371,2.8371,2.8271,2.8268,2.8264,2.8261,2.8277,2.828,2.8284,0,0,0,0,0,0,0,0,0,0,0,0,0,2.8263,2.8226,2.8351,2.8304,2.83,2.8371,2.8371,2.8372,2.8272,2.8268,2.8263,2.8259,2.8276,2.828,2.8285,2.84,0,0,2.8299,2.8301,0,0,0,0,0,0,0,0,2.8261,2.8268,2.831,2.8307,2.8303,2.8314,2.8331,2.8381,2.8273,2.8282,2.8262,2.8257,2.8293,2.8296,2.8309,2.8401,2.8402,2.8299,2.8302,2.8304,2.8305,0,0,0,0,0,0,0,2.8258,2.8267,2.8358,2.8311,2.8307,2.8281,2.8282,2.834,2.8312,2.8281,2.8274,2.8278,2.829,2.8305,2.8309,2.8402,2.8299,2.8303,2.8306,2.8308,2.8589,2.8594,0,0,0,0,0,0,2.8262,2.8265,2.8358,2.8359,2.8271,2.8286,2.8288,2.8315,2.8311,2.8306,2.8282,2.8273,2.8299,2.8303,2.8309,2.8442,2.8304,2.8308,2.8311,2.8585,2.859,2.8595,0,0,0,0,0,0,2.826,2.8272,2.8357,2.831,2.8319,2.8293,2.8324,2.8317,2.8332,2.8311,2.8305,2.8302,2.8296,2.8302,2.8378,2.8441,2.8311,2.8315,2.8579,2.8586,2.8593,2.8711,0,0,0,0,0,0,2.8257,2.8271,2.8315,2.8312,2.8322,2.8428,2.8328,2.8321,2.8341,2.833,2.8329,2.8324,2.8293,2.8372,2.8383,2.8445,2.8318,2.8573,2.8582,2.8591,2.8701,2.8721,2.8738,0,0,0,0,0,2.8252,2.8347,2.8318,2.833,2.8377,2.8431,2.8437,2.84,2.8347,2.839,2.8377,2.8324,2.8434,2.8381,2.8392,2.8457,2.8569,2.858,2.859,2.8693,2.8717,2.8738,0,0,0,0,0,0,2.8355,2.8345,2.8313,2.841,2.8423,2.8414,2.8467,2.8427,2.8454,2.8442,2.8394,2.8395,2.8479,2.8476,2.8417,2.8569,2.8492,2.8505,2.8566,2.8589,2.8608,2.8604,2.8322,0,0,0,0,0,2.839,2.8436,2.8425,2.8511,2.8519,2.8493,2.8515,2.8487,2.8497,2.8501,2.8493,2.8504,2.8541,2.8566,2.8599,2.8703,2.87,2.8753,2.8772,2.8787,2.8797,2.8851,2.8874,2.863,2.863,2.863,0,0,2.846,2.846,2.8492,2.8532,2.8538,2.8586,2.8498,2.8552,2.8586,2.8508,2.8579,2.8576,2.8584,2.8675,2.8714,2.8675,2.8865,2.88,2.8813,2.8814,2.8864,2.8887,2.8908,2.8637,2.8636,2.8635,0,0,2.8611,2.8618,2.869,2.8699,2.8711,2.8694,2.8712,2.8711,2.8705,2.8777,2.872,2.8761,2.8825,2.8834,2.8846,2.9007,2.8958,2.9019,2.9113,2.9166,2.9185,2.9202,2.9256,2.9277,2.9031,2.9031,2.9031,0,2.8695,2.8767,2.8731,2.879,2.8808,2.8745,2.8816,2.8827,2.8848,2.8862,2.8819,2.89,2.8901,2.8992,2.9032,2.9046,2.9062,2.9016,2.9186,2.9202,2.9217,2.9268,2.9289,2.9038,2.9037,2.9036,2.9036,0,2.8869,2.892,2.8977,2.9001,2.9027,2.9092,2.9065,2.9096,2.9067,2.9054,2.9127,2.9128,2.916,2.918,2.9151,2.9268,2.9243,2.9195,2.9115,2.9248,2.9295,2.9315,2.9048,2.9045,2.9043,2.9042,0,0,2.9079,2.9088,2.9109,2.9119,2.9131,2.9168,2.9231,2.9264,2.929,2.9309,2.9358,2.9417,2.9373,2.9388,2.936,2.9407,2.9531,2.9352,2.9351,2.9382,2.9657,2.969,2.9713,2.9502,2.9505,2.9508,2.9655,0,2.9225,2.9333,2.9305,2.9411,2.9457,2.94,2.9454,2.9466,2.9458,2.9494,2.9483,2.9524,2.9464,2.9473,2.9518,2.9506,2.9584,2.9496,2.9544,2.9546,2.9539,2.9738,2.9773,2.9911,2.9673,2.9676,2.9679,0,2.9407,2.9436,2.9548,2.9553,2.9571,2.9621,2.9649,2.9687,2.9699,2.969,2.9709,2.9672,2.9733,2.9659,2.974,2.9681,2.97,2.9698,2.9702,2.9701,2.9617,2.9738,2.9954,2.9973,2.9708,2.9705,2.9703,0,2.9545,2.9612,2.9688,2.9699,2.9708,2.9744,2.9749,2.9758,2.9781,2.9806,2.982,2.9853,2.9869,2.9894,2.9867,2.9816,2.9952,2.9876,2.9943,2.9944,2.9969,2.9967,3.0187,2.999,2.999,2.9989,2.9989,0,2.9707,2.9777,2.975,2.9796,2.9873,2.9841,2.9917,2.9916,2.9925,2.9969,2.9922,2.9964,2.9928,2.9966,2.9946,3.0015,3.0024,3.0016,3.0009,3.0017,3.0018,3.0025,3.0013,2.9995,2.9994,2.9993,2.9992,0,2.9871,2.9856,2.9934,2.9939,2.9941,2.9998,3.0,3.0042,3.0032,3.0088,3.0099,3.0082,3.0125,3.0103,3.0146,3.0133,3.0222,3.0204,3.0218,3.0211,3.0279,3.0271,3.0506,3.0535,3.0324,3.0326,3.0328,0,2.9973,3.0026,3.0038,3.0065,3.0074,3.0118,3.0142,3.0114,3.014,3.0161,3.0201,3.0241,3.027,3.0341,3.0332,3.0365,3.0345,3.0426,3.0349,3.0356,3.0341,3.0337,3.0341,3.0439,3.0441,3.0443,3.0445,0,3.0155,3.0146,3.0183,3.0219,3.025,3.0276,3.0297,3.0322,3.0295,3.0327,3.0372,3.0395,3.0442,3.0481,3.0511,3.0514,3.0474,3.0471,3.0487,3.0493,3.0498,3.0493,3.0255,3.0463,3.0462,3.046,3.0459,3.0458,3.0288,3.0332,3.0348,3.0391,3.0406,3.0428,3.0468,3.0466,3.0503,3.054,3.0522,3.0574,3.0587,3.0623,3.0632,3.0671,3.0639,3.0664,3.0669,3.0674,3.0682,3.0497,3.0677,3.0677,3.0676,3.0676,3.0675,0,3.0464,3.0472,3.0513,3.0547,3.0581,3.0547,3.057,3.06,3.0647,3.0664,3.0696,3.0747,3.0786,3.0782,3.0818,3.085,3.0832,3.0859,3.0854,3.0855,3.0711,3.0691,3.0873,3.0873,3.0873,3.0873,3.0872,3.0872,3.0559,3.0632,3.0626,3.0706,3.0713,3.0766,3.0782,3.0802,3.0815,3.0876,3.0909,3.0908,3.0916,3.0953,3.0986,3.0984,3.0997,3.103,3.1021,3.0885,3.0865,3.0846,3.0827,3.1035,3.1035,3.1161,3.1162,3.1163]},{"header":{"parameterUnit":"m.s-1","parameterCategory":1,"la1":30.2991,"la2":30.254,"lo1":-89.0895,"lo2":-89.0444,"dy":0.0017,"dx":0.0017,"nx":28,"ny":28,"refTime":"2023-07-22T09:00:00:Z","depth":0,"parameterNumber":3,"parameterNumberName":"V-component_of_WINDS"},"data":[0,0,0,0,0,0,0,0,0,0,0,0,0,0,0,0,0,0,0,0,0,0,0,0,0,0,0,0,0,0,0,0,0,0,0,0,0,0,0,0,0,0,0,0,0,0,0,0,0,0,0,0,0,0,0,0,0,0,1.9638,1.9641,0,1.9841,1.9843,1.9845,1.985,1.9848,1.9845,1.9843,2.0054,2.0062,2.007,0,0,0,0,0,0,0,0,0,0,0,0,0,1.9257,1.9264,1.9638,1.9641,1.9643,1.984,1.9843,1.9846,1.9851,1.9848,1.9845,1.9842,2.0052,2.0061,2.007,0,0,0,0,0,0,0,0,0,0,0,0,0,1.9438,1.9267,1.9638,1.9669,1.9674,1.984,1.9843,1.9847,1.9852,1.9848,1.9844,1.984,2.0048,2.006,2.0072,2.0221,0,0,2.0108,2.0113,0,0,0,0,0,0,0,0,1.9427,1.9452,1.9662,1.9667,1.9673,1.9816,1.9786,1.9972,1.9852,1.9784,1.9843,1.9839,1.9978,1.9996,2.0042,2.0231,2.024,2.0109,2.0117,2.0122,2.0125,0,0,0,0,0,0,0,1.9415,1.9443,1.9718,1.9665,1.9672,1.9674,1.9695,1.9822,1.99,1.979,1.9791,1.9814,1.9981,2.0031,2.0047,2.0243,2.0109,2.012,2.0127,2.0132,2.0559,2.0563,0,0,0,0,0,0,1.9396,1.9433,1.9712,1.9725,1.9538,1.9684,1.9708,1.9774,1.9899,1.9914,1.9817,1.9814,2.0012,2.0033,2.0055,2.0235,2.0122,2.0133,2.014,2.0555,2.056,2.0565,0,0,0,0,0,0,1.9388,1.9421,1.9704,1.9579,1.9615,1.9694,1.9769,1.978,1.983,1.9919,1.9934,1.9854,2.001,2.0038,2.0178,2.0242,2.0138,2.0149,2.055,2.0557,2.0563,2.0598,0,0,0,0,0,0,1.9377,1.9418,1.9475,1.958,1.9622,1.9824,1.9773,1.9787,1.985,1.9848,1.9958,1.9972,2.0009,2.016,2.019,2.0257,2.0158,2.0545,2.0553,2.0561,2.0592,2.0605,2.0616,0,0,0,0,0,1.9363,1.9479,1.9478,1.9512,1.9695,1.9828,1.9852,1.9891,1.9856,1.9914,1.997,1.9969,2.023,2.0175,2.0208,2.028,2.0541,2.0551,2.056,2.0586,2.0602,2.0616,0,0,0,0,0,0,1.9383,1.9493,1.9494,1.9647,1.9727,1.9828,1.9904,1.9907,2.0001,1.9995,2.004,2.0065,2.0204,2.0256,2.0192,2.0428,2.0381,2.0398,2.039,2.0406,2.0418,2.0403,2.0168,0,0,0,0,0,1.9404,1.9502,1.9594,1.972,1.976,1.9825,1.9884,1.9907,1.9993,2.0028,2.0095,2.0179,2.028,2.0346,2.0444,2.0598,2.0621,2.0664,2.0676,2.0685,2.07,2.0782,2.0801,2.0596,2.0596,2.0596,0,0,1.9451,1.9523,1.9583,1.9725,1.9791,1.9891,1.9854,1.9963,2.0037,2.0045,2.0181,2.0232,2.0329,2.0476,2.0545,2.0524,2.0761,2.0697,2.0704,2.0714,2.0794,2.0813,2.083,2.0602,2.0601,2.06,0,0,1.9587,1.9652,1.9763,1.9828,1.9925,1.9967,1.9993,2.0093,2.0127,2.0263,2.027,2.0359,2.0533,2.0601,2.0658,2.0814,2.0815,2.0844,2.0909,2.0989,2.1005,2.102,2.1074,2.1093,2.0858,2.0858,2.0858,0,1.9634,1.9784,1.982,1.9927,1.9989,1.9997,2.0109,2.0171,2.0297,2.0339,2.0313,2.0528,2.0594,2.0756,2.0793,2.084,2.0871,2.0833,2.1,2.1015,2.1029,2.1081,2.1102,2.0861,2.0861,2.086,2.086,0,1.9835,1.9939,2.0016,2.0134,2.0204,2.0314,2.0366,2.0433,2.0448,2.0492,2.0629,2.0708,2.082,2.086,2.0878,2.1024,2.1007,2.099,2.0944,2.1051,2.11,2.1121,2.0865,2.0864,2.0863,2.0862,0,0,1.9993,2.0125,2.0153,2.0205,2.0311,2.0392,2.0501,2.0608,2.0664,2.075,2.0841,2.0985,2.0969,2.1033,2.1058,2.1128,2.1244,2.1102,2.1105,2.1125,2.1407,2.1419,2.1442,2.1244,2.1248,2.1251,2.1398,0,2.0139,2.0331,2.0364,2.0532,2.0627,2.0634,2.0728,2.0803,2.0846,2.0933,2.0981,2.1081,2.1053,2.1091,2.1161,2.1215,2.1301,2.1205,2.133,2.1334,2.1305,2.1468,2.1483,2.1618,2.1418,2.1422,2.1424,0,2.0338,2.0424,2.06,2.0689,2.0731,2.0815,2.0914,2.0998,2.1082,2.1108,2.1177,2.1193,2.1305,2.1252,2.1406,2.1339,2.1392,2.1426,2.1432,2.1446,2.1386,2.1486,2.1662,2.1682,2.1455,2.1453,2.1451,0,2.0433,2.0594,2.0719,2.0763,2.0872,2.093,2.0978,2.1058,2.112,2.1207,2.1247,2.1346,2.1401,2.1477,2.1518,2.1476,2.1668,2.162,2.1692,2.1691,2.1734,2.1731,2.1921,2.1767,2.1767,2.1767,2.1766,0,2.0593,2.0701,2.0762,2.084,2.0959,2.0996,2.1113,2.116,2.1231,2.1317,2.133,2.141,2.1459,2.1547,2.158,2.1701,2.1726,2.1749,2.1757,2.1749,2.1745,2.1784,2.1776,2.1772,2.1771,2.177,2.1769,0,2.0721,2.0767,2.0904,2.0993,2.1018,2.1102,2.1179,2.1254,2.1294,2.1403,2.143,2.1495,2.1598,2.1645,2.1774,2.1796,2.1933,2.1934,2.1904,2.1907,2.1977,2.1969,2.2199,2.223,2.2056,2.2058,2.2059,0,2.0821,2.0903,2.0999,2.1057,2.1105,2.1198,2.1259,2.1298,2.1361,2.1461,2.1523,2.1626,2.1711,2.1875,2.1934,2.2031,2.2034,2.2107,2.2049,2.2037,2.2035,2.2029,2.2037,2.2119,2.212,2.2122,2.2123,0,2.0993,2.101,2.1097,2.1191,2.1263,2.134,2.1415,2.1462,2.1511,2.1582,2.1686,2.1751,2.188,2.1982,2.2082,2.2131,2.2136,2.214,2.2162,2.2155,2.2134,2.2145,2.1933,2.2135,2.2134,2.2133,2.2133,2.2132,2.111,2.1181,2.1259,2.1355,2.1414,2.1483,2.1557,2.1605,2.1692,2.1798,2.1815,2.1926,2.2005,2.214,2.2192,2.2279,2.2262,2.2294,2.2302,2.2309,2.2313,2.2119,2.2297,2.2297,2.2297,2.2297,2.2296,0,2.1281,2.133,2.1417,2.152,2.1595,2.1589,2.1671,2.1734,2.1831,2.1903,2.1984,2.2103,2.22,2.2264,2.2363,2.242,2.2424,2.2444,2.2441,2.2452,2.2323,2.2294,2.2439,2.2439,2.2439,2.2439,2.2439,2.2439,2.1379,2.1499,2.1525,2.1674,2.1723,2.183,2.1877,2.194,2.1997,2.2128,2.2208,2.2248,2.2317,2.242,2.2509,2.2525,2.256,2.2581,2.2597,2.2476,2.2461,2.2447,2.242,2.2589,2.2589,2.2718,2.272,2.2721]}]]